This is the latest recevied weather packets stored in our database for station/object S54A-11. If no packets are shown the sender has not sent any weather packets the latest 10 day(s).
| Time | Temp. | Humidity | Pressure | Rain* | Wind** | Luminosity | Snow |
|---|---|---|---|---|---|---|---|
| 1777474714 | 9.44° C | 64% | 1021.9 hPa | - | - | - | - |
| 1777473814 | 9.44° C | 62% | 1022 hPa | - | - | - | - |
| 1777472914 | 10° C | 61% | 1022.1 hPa | - | - | - | - |
| 1777472014 | 10° C | 63% | 1022.1 hPa | - | - | - | - |
| 1777471114 | 10° C | 63% | 1022.1 hPa | - | - | - | - |
| 1777470214 | 10° C | 64% | 1022.2 hPa | - | - | - | - |
| 1777469314 | 10° C | 63% | 1022.1 hPa | - | - | - | - |
| 1777468414 | 10° C | 63% | 1022.1 hPa | - | - | - | - |
| 1777467514 | 10° C | 62% | 1022.3 hPa | - | - | - | - |
| 1777466614 | 10° C | 64% | 1022.1 hPa | - | - | - | - |
| 1777465714 | 10° C | 66% | 1022.2 hPa | - | - | - | - |
| 1777464814 | 10° C | 64% | 1022.3 hPa | - | - | - | - |
| 1777463914 | 10.56° C | 60% | 1022.2 hPa | - | - | - | - |
| 1777463013 | 10.56° C | 67% | 1021.9 hPa | - | - | - | - |
| 1777462114 | 10.56° C | 64% | 1021.9 hPa | - | - | - | - |
| 1777461213 | 10.56° C | 63% | 1022 hPa | - | - | - | - |
| 1777460313 | 11.11° C | 60% | 1022.1 hPa | - | - | - | - |
| 1777459413 | 11.11° C | 59% | 1021.9 hPa | - | - | - | - |
| 1777458513 | 11.11° C | 60% | 1021.8 hPa | - | - | - | - |
| 1777457613 | 10.56° C | 60% | 1021.8 hPa | - | - | - | - |
| 1777456713 | 10° C | 64% | 1021.8 hPa | - | - | - | - |
| 1777455813 | 10° C | 69% | 1021.9 hPa | - | - | - | - |
| 1777454913 | 11.11° C | 71% | 1021.7 hPa | - | - | - | - |
| 1777454013 | 11.11° C | 66% | 1021.4 hPa | - | - | - | - |
| 1777453112 | 11.67° C | 62% | 1021.4 hPa | - | - | - | - |
* Rain since midnight (hover to see other rain measurements)
** Current wind speed in m/s (hover to see current wind gust speed)